Language: 


Des rapports , des résumés tant et plus, au choix de chacun....


Données statistiques de la station
Quotidien Rapport Septembre 30, 2017 Unités:  Anglais    Métrique   les deux
« Précédent Jour
Suivant Jour »
Quotidien Hebdomadaire Mensuel Annuel Actuel
  Haut: Bas: Moyen:
Température: 69.6 °F 54.7 °F 59.5 °F
Pt de rosée: 59 °F 46.4 °F 53.8 °F
Humidité: 98 % 48 % 83 %
Vitesse du vent: 7.6 mph 0 mph 1.7 mph
Rafales: 8.5 mph - -
Vent:- - West
Pression: 30.1 in 30 in -
Précipitation: 0 in    
Historical Graphs
 
 
Données statistiques pour Septembre 30, 2017
Heure Température Point de rosée Pression Vent Vitesse du vent Refales Humidité Pluie (taux horaire)
00:01 60.3 °F 59 °F 30.1 in West 5.6 mph 8.1 mph 93 % 0 in
00:06 60.3 °F 59 °F 30.1 in WSW 4 mph 7.4 mph 93 % 0 in
00:12 59.9 °F 59 °F 30.1 in WSW 3.6 mph 7.4 mph 93 % 0 in
00:17 59.9 °F 59 °F 30 in Calm   6.5 mph 93 % 0 in
00:22 59.9 °F 59 °F 30 in Calm   4.3 mph 93 % 0 in
00:27 59.9 °F 59 °F 30 in West 6.3 mph 7.6 mph 93 % 0 in
00:32 59.9 °F 59 °F 30.1 in WSW 2.2 mph 7.6 mph 93 % 0 in
00:37 59.7 °F 57.2 °F 30.1 in West 5.6 mph 6.5 mph 93 % 0 in
00:42 59.5 °F 57.2 °F 30.1 in West 5.8 mph 6.5 mph 94 % 0 in
00:47 59.4 °F 57.2 °F 30.1 in WSW 5.8 mph 8.5 mph 94 % 0 in
00:51 59.4 °F 57.2 °F 30.1 in WSW 3.8 mph 8.5 mph 94 % 0 in
00:56 59.2 °F 57.2 °F 30.1 in West 3.6 mph 6.5 mph 94 % 0 in
01:01 59.2 °F 57.2 °F 30 in Calm   5.8 mph 94 % 0 in
01:03 59.2 °F 57.2 °F 30 in WNW 1.1 mph 5.8 mph 94 % 0 in
01:08 59.2 °F 57.2 °F 30 in Calm   4.3 mph 95 % 0 in
01:13 59 °F 57.2 °F 30 in Calm   4.3 mph 95 % 0 in
01:18 59 °F 57.2 °F 30 in Calm   3.1 mph 94 % 0 in
01:24 59 °F 57.2 °F 30 in West 1.1 mph 3.1 mph 95 % 0 in
01:29 59 °F 57.2 °F 30 in WNW 2.9 mph 3.1 mph 95 % 0 in
01:34 59 °F 57.2 °F 30 in Calm   3.1 mph 95 % 0 in
01:39 58.6 °F 57.2 °F 30 in Calm   3.4 mph 95 % 0 in
01:44 58.5 °F 57.2 °F 30 in Calm   3.4 mph 95 % 0 in
01:49 58.5 °F 57.2 °F 30 in Calm   2.7 mph 95 % 0 in
01:54 58.3 °F 57.2 °F 30 in Calm   2 mph 95 % 0 in
01:59 58.3 °F 57.2 °F 30 in Calm     95 % 0 in
02:04 58.1 °F 57.2 °F 30 in West 3.1 mph 3.1 mph 95 % 0 in
02:09 57.9 °F 57.2 °F 30 in Calm   3.4 mph 96 % 0 in
02:14 57.7 °F 57.2 °F 30 in Calm   3.4 mph 96 % 0 in
02:19 57.7 °F 57.2 °F 30.1 in Calm     96 % 0 in
02:24 57.7 °F 57.2 °F 30.1 in West 4.5 mph 4.5 mph 96 % 0 in
02:29 57.6 °F 57.2 °F 30.1 in Calm   4.5 mph 96 % 0 in
02:34 57.6 °F 57.2 °F 30 in Calm   4.5 mph 96 % 0 in
02:39 57.6 °F 57.2 °F 30 in Calm     96 % 0 in
02:44 57.4 °F 57.2 °F 30 in Calm     96 % 0 in
02:49 57.6 °F 57.2 °F 30 in Calm   4.3 mph 96 % 0 in
02:54 57.6 °F 57.2 °F 30 in Calm   5.4 mph 96 % 0 in
02:59 57.6 °F 57.2 °F 30 in West 2.2 mph 5.4 mph 96 % 0 in
03:04 57.6 °F 57.2 °F 30 in WNW 3.1 mph 4.3 mph 96 % 0 in
03:09 57.6 °F 57.2 °F 30 in West 2.5 mph 4.3 mph 96 % 0 in
03:14 57.6 °F 57.2 °F 30 in WSW 3.8 mph 4 mph 96 % 0 in
03:19 57.6 °F 57.2 °F 30 in Calm   4 mph 96 % 0 in
03:24 57.6 °F 57.2 °F 30 in Calm   4 mph 96 % 0 in
03:29 57.6 °F 57.2 °F 30 in West 3.4 mph 3.8 mph 96 % 0 in
03:34 57.6 °F 57.2 °F 30 in Calm   3.8 mph 96 % 0 in
03:40 57.6 °F 57.2 °F 30 in Calm   3.6 mph 96 % 0 in
03:45 57.4 °F 57.2 °F 30 in NW 2.2 mph 2.2 mph 96 % 0 in
03:50 57.4 °F 57.2 °F 30 in West 3.8 mph 4.9 mph 96 % 0 in
03:55 57.2 °F 57.2 °F 30 in West 3.1 mph 5.4 mph 96 % 0 in
04:00 57 °F 57.2 °F 30 in Calm   5.4 mph 96 % 0 in
04:05 56.8 °F 55.4 °F 30 in Calm   3.6 mph 96 % 0 in
04:10 56.5 °F 55.4 °F 30 in Calm   1.6 mph 96 % 0 in
04:15 56.5 °F 55.4 °F 30 in Calm   1.6 mph 96 % 0 in
04:20 56.5 °F 55.4 °F 30 in Calm   1.6 mph 96 % 0 in
04:25 56.1 °F 55.4 °F 30 in Calm   1.1 mph 96 % 0 in
04:30 56.1 °F 55.4 °F 30 in Calm   1.3 mph 96 % 0 in
04:35 55.9 °F 55.4 °F 30 in Calm   1.3 mph 97 % 0 in
04:40 55.9 °F 55.4 °F 30 in Calm   2.9 mph 97 % 0 in
04:45 55.8 °F 55.4 °F 30 in Calm   2.9 mph 97 % 0 in
04:50 55.6 °F 55.4 °F 30 in Calm     97 % 0 in
04:55 55.4 °F 55.4 °F 30 in Calm     97 % 0 in
05:00 55.2 °F 55.4 °F 30 in Calm     97 % 0 in
05:05 55.4 °F 55.4 °F 30 in Calm   1.3 mph 97 % 0 in
05:10 55.6 °F 55.4 °F 30 in Calm   1.3 mph 98 % 0 in
05:15 55.6 °F 55.4 °F 30 in Calm     98 % 0 in
05:20 55.8 °F 55.4 °F 30 in Calm     98 % 0 in
05:25 55.8 °F 55.4 °F 30 in Calm     98 % 0 in
05:30 55.8 °F 55.4 °F 30 in West 2.9 mph 2.9 mph 98 % 0 in
05:35 55.8 °F 55.4 °F 30 in WNW 2.2 mph 2.9 mph 98 % 0 in
05:40 55.8 °F 55.4 °F 30 in Calm   2.9 mph 98 % 0 in
05:46 55.8 °F 55.4 °F 30.1 in Calm   2.7 mph 98 % 0 in
05:50 55.8 °F 55.4 °F 30.1 in Calm     98 % 0 in
05:56 55.6 °F 55.4 °F 30.1 in Calm     98 % 0 in
06:01 55.4 °F 55.4 °F 30 in Calm     98 % 0 in
06:06 55.4 °F 55.4 °F 30 in Calm     98 % 0 in
06:11 55.6 °F 55.4 °F 30 in Calm     98 % 0 in
06:16 55.6 °F 55.4 °F 30 in Calm     98 % 0 in
06:21 55.6 °F 55.4 °F 30 in Calm     98 % 0 in
06:26 55.6 °F 55.4 °F 30 in Calm     98 % 0 in
06:28 55.6 °F 55.4 °F 30 in Calm     98 % 0 in
06:33 55.6 °F 55.4 °F 30 in Calm     98 % 0 in
06:38 55.6 °F 55.4 °F 30 in Calm     98 % 0 in
06:43 55.8 °F 55.4 °F 30 in Calm     98 % 0 in
06:48 55.8 °F 55.4 °F 30 in West 0.9 mph 0.9 mph 98 % 0 in
06:54 55.8 °F 55.4 °F 30 in Calm   0.9 mph 98 % 0 in
06:59 55.6 °F 55.4 °F 30 in Calm     98 % 0 in
07:04 55.6 °F 55.4 °F 30 in Calm     98 % 0 in
07:09 55.6 °F 55.4 °F 30 in Calm     98 % 0 in
07:14 55.4 °F 55.4 °F 30 in Calm     98 % 0 in
07:19 55.4 °F 55.4 °F 30 in Calm   0.9 mph 98 % 0 in
07:24 55.4 °F 55.4 °F 30 in Calm   0.9 mph 98 % 0 in
07:29 55.4 °F 55.4 °F 30 in Calm     98 % 0 in
07:34 55 °F 55.4 °F 30 in Calm     98 % 0 in
07:39 54.9 °F 55.4 °F 30 in Calm     98 % 0 in
07:44 54.9 °F 55.4 °F 30 in Calm     98 % 0 in
07:49 54.9 °F 55.4 °F 30 in Calm     98 % 0 in
07:54 54.7 °F 55.4 °F 30 in Calm     98 % 0 in
07:59 54.7 °F 55.4 °F 30 in Calm     98 % 0 in
08:04 54.9 °F 55.4 °F 30 in Calm     98 % 0 in
08:09 55 °F 55.4 °F 30 in Calm     98 % 0 in
08:14 55 °F 55.4 °F 30 in Calm     98 % 0 in
08:19 55.2 °F 55.4 °F 30 in Calm     98 % 0 in
08:24 55.2 °F 55.4 °F 30 in Calm     98 % 0 in
08:29 55.2 °F 55.4 °F 30 in Calm     98 % 0 in
08:34 55.2 °F 55.4 °F 30 in Calm     98 % 0 in
08:44 55.2 °F 55.4 °F 30 in Calm     98 % 0 in
08:49 55.2 °F 55.4 °F 30 in Calm     98 % 0 in
08:54 55.4 °F 55.4 °F 30 in Calm     98 % 0 in
08:59 55.4 °F 55.4 °F 30 in Calm     98 % 0 in
09:04 55.4 °F 55.4 °F 30 in Calm     98 % 0 in
09:14 55.9 °F 55.4 °F 30 in Calm     98 % 0 in
09:19 55.9 °F 55.4 °F 30 in Calm     98 % 0 in
09:24 56.3 °F 57.2 °F 30 in WNW 1.1 mph 2.2 mph 98 % 0 in
09:29 56.3 °F 57.2 °F 30 in Calm   2.5 mph 98 % 0 in
09:34 56.3 °F 57.2 °F 30 in West 1.1 mph 2.5 mph 98 % 0 in
09:39 56.5 °F 57.2 °F 30 in Calm   2.5 mph 98 % 0 in
09:44 56.7 °F 57.2 °F 30 in Calm   2 mph 98 % 0 in
09:49 56.7 °F 57.2 °F 30 in Calm   3.4 mph 98 % 0 in
09:54 56.7 °F 57.2 °F 30 in Calm   3.4 mph 98 % 0 in
09:59 56.8 °F 57.2 °F 30 in Calm   3.6 mph 98 % 0 in
10:04 57 °F 57.2 °F 30 in Calm   3.6 mph 98 % 0 in
10:09 57.2 °F 57.2 °F 30 in Calm     98 % 0 in
10:14 57.4 °F 57.2 °F 30 in West 4.3 mph 4.3 mph 98 % 0 in
10:19 57.6 °F 57.2 °F 30 in WSW 4.3 mph 6 mph 98 % 0 in
10:24 57.7 °F 57.2 °F 30 in West 6.5 mph 7.8 mph 98 % 0 in
10:29 57.9 °F 57.2 °F 30 in West 6 mph 7.8 mph 98 % 0 in
10:34 58.1 °F 59 °F 30 in West 7.6 mph 7.6 mph 98 % 0 in
10:39 58.3 °F 59 °F 30 in West 6.3 mph 8.1 mph 98 % 0 in
10:44 58.5 °F 59 °F 30 in West 4 mph 8.1 mph 98 % 0 in
10:49 58.5 °F 59 °F 30 in West 3.8 mph 6.5 mph 98 % 0 in
10:54 59 °F 59 °F 30 in WSW 6.5 mph 6.5 mph 97 % 0 in
10:59 59.2 °F 59 °F 30 in West 4 mph 6.5 mph 97 % 0 in
11:04 59.4 °F 59 °F 30 in West 5.6 mph 7.8 mph 97 % 0 in
11:09 59.5 °F 59 °F 30 in West 6 mph 7.8 mph 97 % 0 in
11:14 59.7 °F 59 °F 30 in West 6.5 mph 7.6 mph 96 % 0 in
11:19 60.3 °F 59 °F 30 in WSW 6.5 mph 7.6 mph 96 % 0 in
11:26 60.8 °F 59 °F 30 in West 5.4 mph 7.2 mph 95 % 0 in
11:31 61 °F 59 °F 30.1 in West 5.4 mph 8.5 mph 94 % 0 in
11:36 61.2 °F 59 °F 30.1 in West 5.6 mph 8.5 mph 94 % 0 in
11:41 61.3 °F 59 °F 30.1 in West 3.8 mph 6.5 mph 94 % 0 in
11:46 61.2 °F 59 °F 30 in West 3.4 mph 5.8 mph 92 % 0 in
11:51 61.3 °F 59 °F 30 in West 3.4 mph 4.9 mph 91 % 0 in
11:56 61.3 °F 59 °F 30 in West 3.4 mph 3.4 mph 90 % 0 in
12:01 61.2 °F 59 °F 30 in West 3.4 mph 3.4 mph 90 % 0 in
12:06 61.2 °F 59 °F 30 in West 3.4 mph 3.4 mph 90 % 0 in
12:11 61 °F 57.2 °F 30 in West 3.4 mph 3.4 mph 89 % 0 in
12:16 61.2 °F 57.2 °F 30 in West 3.4 mph 3.4 mph 88 % 0 in
12:21 61 °F 57.2 °F 30 in West 3.4 mph 3.4 mph 87 % 0 in
12:26 61 °F 57.2 °F 30 in West 3.4 mph 3.4 mph 86 % 0 in
12:31 61.3 °F 57.2 °F 30 in West 3.4 mph 3.4 mph 87 % 0 in
12:36 61.3 °F 57.2 °F 30 in West 3.4 mph 3.4 mph 86 % 0 in
12:41 61 °F 57.2 °F 30 in West 3.4 mph 3.4 mph 86 % 0 in
12:46 61 °F 57.2 °F 30 in West 3.4 mph 3.4 mph 86 % 0 in
12:51 61 °F 57.2 °F 30 in West 3.4 mph 3.4 mph 85 % 0 in
12:56 61.2 °F 55.4 °F 30 in West 3.4 mph 3.4 mph 83 % 0 in
13:01 61.2 °F 55.4 °F 30 in West 3.4 mph 3.4 mph 83 % 0 in
13:06 61.3 °F 55.4 °F 30 in West 3.4 mph 3.4 mph 83 % 0 in
13:11 61.3 °F 55.4 °F 30 in West 3.4 mph 3.4 mph 82 % 0 in
13:16 61.7 °F 55.4 °F 30 in West 3.4 mph 3.4 mph 80 % 0 in
13:21 62.1 °F 55.4 °F 30 in West 3.4 mph 3.4 mph 80 % 0 in
13:26 62.8 °F 55.4 °F 30 in West 3.4 mph 3.4 mph 76 % 0 in
13:32 63.9 °F 55.4 °F 30.1 in West 3.4 mph 3.4 mph 74 % 0 in
13:37 64.9 °F 55.4 °F 30.1 in West 3.4 mph 3.4 mph 73 % 0 in
13:42 65.8 °F 55.4 °F 30.1 in West 3.4 mph 3.4 mph 70 % 0 in
13:47 65.7 °F 53.6 °F 30 in West 3.4 mph 3.4 mph 66 % 0 in
13:52 66.6 °F 55.4 °F 30 in West 3.4 mph 3.4 mph 67 % 0 in
13:57 67.1 °F 55.4 °F 30 in West 3.4 mph 3.4 mph 66 % 0 in
14:02 67.5 °F 53.6 °F 30 in West 3.4 mph 3.4 mph 62 % 0 in
14:07 66.9 °F 51.8 °F 30 in West 3.4 mph 3.4 mph 59 % 0 in
14:12 66.7 °F 51.8 °F 30 in West 3.4 mph 3.4 mph 58 % 0 in
14:17 66.7 °F 50 °F 30 in West 3.4 mph 3.4 mph 55 % 0 in
14:22 67.1 °F 50 °F 30 in West 3.4 mph 3.4 mph 54 % 0 in
14:27 66.7 °F 50 °F 30 in West 3.4 mph 3.4 mph 55 % 0 in
14:32 66.6 °F 50 °F 30 in West 3.4 mph 3.4 mph 54 % 0 in
14:37 64.8 °F 48.2 °F 30 in West 3.4 mph 3.4 mph 54 % 0 in
14:42 64.6 °F 48.2 °F 30 in West 3.4 mph 3.4 mph 55 % 0 in
14:47 65.5 °F 48.2 °F 30 in West 3.4 mph 3.4 mph 55 % 0 in
14:52 65.3 °F 48.2 °F 30 in West 3.4 mph 3.4 mph 54 % 0 in
14:57 65.7 °F 48.2 °F 30 in West 3.4 mph 3.4 mph 55 % 0 in
15:02 66.6 °F 50 °F 30 in West 3.4 mph 3.4 mph 55 % 0 in
15:07 67.1 °F 48.2 °F 30 in West 3.4 mph 3.4 mph 51 % 0 in
15:12 67.6 °F 50 °F 30 in West 3.4 mph 3.4 mph 53 % 0 in
15:17 68.2 °F 50 °F 30 in West 3.4 mph 3.4 mph 51 % 0 in
15:22 68 °F 48.2 °F 30 in West 3.4 mph 3.4 mph 49 % 0 in
15:27 68 °F 48.2 °F 30 in West 3.4 mph 3.4 mph 50 % 0 in
15:32 68.5 °F 50 °F 30 in West 3.4 mph 3.4 mph 51 % 0 in
15:37 68.7 °F 50 °F 30 in West 3.4 mph 3.4 mph 52 % 0 in
15:42 68.7 °F 48.2 °F 30 in West 3.4 mph 3.4 mph 49 % 0 in
15:47 68.9 °F 50 °F 30 in West 3.4 mph 3.4 mph 50 % 0 in
15:51 68.7 °F 48.2 °F 30 in West 3.4 mph 3.4 mph 49 % 0 in
15:56 68.7 °F 48.2 °F 30 in West 3.4 mph 3.4 mph 49 % 0 in
16:01 69.6 °F 50 °F 30 in West 3.4 mph 3.4 mph 50 % 0 in
16:06 68.5 °F 48.2 °F 30 in West 3.4 mph 3.4 mph 48 % 0 in
16:11 68.7 °F 48.2 °F 30 in West 3.4 mph 3.4 mph 48 % 0 in
16:16 67.1 °F 48.2 °F 30 in West 3.4 mph 3.4 mph 49 % 0 in
16:21 65.8 °F 48.2 °F 30 in West 3.4 mph 3.4 mph 51 % 0 in
16:26 65.7 °F 48.2 °F 30 in West 3.4 mph 3.4 mph 53 % 0 in
16:31 65.5 °F 48.2 °F 30 in West 3.4 mph 3.4 mph 53 % 0 in
16:36 65.5 °F 48.2 °F 30 in West 3.4 mph 3.4 mph 55 % 0 in
16:38 66.2 °F 50 °F 30 in West 3.4 mph 3.4 mph 55 % 0 in
16:43 68 °F 51.8 °F 30 in West 3.4 mph 3.4 mph 56 % 0 in
16:48 68.2 °F 50 °F 30 in West 3.4 mph 3.4 mph 51 % 0 in
16:49 68.2 °F 50 °F 30 in West 3.4 mph 3.4 mph 51 % 0 in
16:54 68 °F 50 °F 30 in West 3.4 mph 3.4 mph 51 % 0 in
16:59 68.5 °F 50 °F 30 in West 3.4 mph 3.4 mph 51 % 0 in
17:04 68.2 °F 48.2 °F 30 in West 3.4 mph 3.4 mph 49 % 0 in
17:09 68 °F 48.2 °F 30 in West 3.4 mph 3.4 mph 49 % 0 in
17:14 67.8 °F 48.2 °F 30 in West 3.4 mph 3.4 mph 50 % 0 in
17:19 66.7 °F 48.2 °F 30 in West 3.4 mph 3.4 mph 49 % 0 in
17:24 66.4 °F 46.4 °F 30 in West 3.4 mph 3.4 mph 49 % 0 in
17:29 65.8 °F 48.2 °F 30 in West 3.4 mph 3.4 mph 52 % 0 in
17:34 65.8 °F 48.2 °F 30 in West 3.4 mph 3.4 mph 53 % 0 in
17:39 65.5 °F 48.2 °F 30 in West 3.4 mph 3.4 mph 53 % 0 in
17:44 64.8 °F 46.4 °F 30 in West 3.4 mph 3.4 mph 51 % 0 in
17:49 64 °F 48.2 °F 30 in West 3.4 mph 3.4 mph 54 % 0 in
17:54 63.3 °F 46.4 °F 30 in West 3.4 mph 3.4 mph 55 % 0 in
17:59 63 °F 46.4 °F 30 in West 3.4 mph 3.4 mph 54 % 0 in
18:04 62.6 °F 46.4 °F 30 in West 3.4 mph 3.4 mph 56 % 0 in
18:09 62.6 °F 48.2 °F 30 in West 3.4 mph 3.4 mph 57 % 0 in
18:15 62.4 °F 48.2 °F 30 in West 3.4 mph 3.4 mph 57 % 0 in
18:20 62.2 °F 46.4 °F 30.1 in West 3.4 mph 3.4 mph 57 % 0 in
18:25 62.2 °F 46.4 °F 30.1 in West 3.4 mph 3.4 mph 57 % 0 in
18:30 62.1 °F 48.2 °F 30.1 in West 3.4 mph 3.4 mph 58 % 0 in
18:35 61.9 °F 48.2 °F 30.1 in West 3.4 mph 3.4 mph 59 % 0 in
18:40 61.9 °F 48.2 °F 30.1 in West 3.4 mph 3.4 mph 61 % 0 in
18:45 61.7 °F 48.2 °F 30.1 in West 3.4 mph 3.4 mph 61 % 0 in
18:50 61.5 °F 48.2 °F 30.1 in West 3.4 mph 3.4 mph 62 % 0 in
18:55 61.2 °F 48.2 °F 30.1 in West 3.4 mph 3.4 mph 63 % 0 in
19:00 60.6 °F 48.2 °F 30.1 in West 3.4 mph 3.4 mph 64 % 0 in
19:05 60.3 °F 48.2 °F 30.1 in West 3.4 mph 3.4 mph 66 % 0 in
19:06 60.3 °F 48.2 °F 30.1 in West 3.4 mph 3.4 mph 66 % 0 in
19:11 59.9 °F 50 °F 30.1 in Calm     67 % 0 in
19:16 59.2 °F 48.2 °F 30.1 in Calm     68 % 0 in
19:21 58.6 °F 48.2 °F 30.1 in Calm     70 % 0 in
19:26 58.3 °F 48.2 °F 30.1 in Calm     70 % 0 in
19:31 57.9 °F 48.2 °F 30.1 in Calm     71 % 0 in
19:36 57.4 °F 48.2 °F 30.1 in Calm     72 % 0 in
19:41 57.2 °F 48.2 °F 30.1 in Calm     73 % 0 in
19:46 56.8 °F 48.2 °F 30.1 in Calm     74 % 0 in
19:51 56.7 °F 48.2 °F 30.1 in Calm     74 % 0 in
19:56 56.7 °F 50 °F 30.1 in Calm     75 % 0 in
20:01 56.7 °F 50 °F 30.1 in Calm     75 % 0 in
20:06 56.7 °F 50 °F 30.1 in Calm     76 % 0 in
20:11 56.7 °F 50 °F 30.1 in Calm     77 % 0 in
20:16 56.7 °F 50 °F 30.1 in Calm     77 % 0 in
20:21 56.7 °F 50 °F 30.1 in Calm     78 % 0 in
20:26 56.8 °F 50 °F 30.1 in Calm     78 % 0 in
20:31 56.7 °F 50 °F 30.1 in Calm     78 % 0 in
20:36 56.7 °F 50 °F 30.1 in Calm     79 % 0 in
20:41 56.5 °F 50 °F 30.1 in Calm     79 % 0 in
20:46 56.5 °F 51.8 °F 30.1 in Calm     80 % 0 in
20:52 56.3 °F 51.8 °F 30.1 in Calm     80 % 0 in
20:57 56.3 °F 51.8 °F 30.1 in Calm     80 % 0 in
20:59 56.5 °F 51.8 °F 30.1 in Calm     81 % 0 in
21:04 56.7 °F 51.8 °F 30.1 in Calm     81 % 0 in
21:09 56.8 °F 51.8 °F 30.1 in Calm     81 % 0 in
21:14 56.7 °F 51.8 °F 30.1 in Calm     81 % 0 in
21:19 56.7 °F 51.8 °F 30.1 in Calm     81 % 0 in
21:24 56.5 °F 51.8 °F 30.1 in Calm     82 % 0 in
21:29 56.5 °F 51.8 °F 30.1 in Calm     82 % 0 in
21:34 56.3 °F 51.8 °F 30.1 in Calm     82 % 0 in
21:39 56.3 °F 51.8 °F 30.1 in Calm     82 % 0 in
21:44 56.1 °F 51.8 °F 30.1 in Calm     82 % 0 in
21:49 56.1 °F 51.8 °F 30.1 in Calm     82 % 0 in
21:54 56.3 °F 51.8 °F 30.1 in Calm     82 % 0 in
21:59 56.3 °F 51.8 °F 30.1 in Calm     82 % 0 in
22:04 56.3 °F 51.8 °F 30.1 in Calm     83 % 0 in
22:09 56.5 °F 51.8 °F 30.1 in Calm     83 % 0 in
22:15 56.7 °F 51.8 °F 30.1 in Calm     83 % 0 in
22:20 56.8 °F 51.8 °F 30.1 in Calm     83 % 0 in
22:25 57 °F 51.8 °F 30.1 in Calm     83 % 0 in
22:30 57.2 °F 51.8 °F 30.1 in Calm     83 % 0 in
22:35 57.2 °F 51.8 °F 30.1 in Calm     83 % 0 in
22:40 57.2 °F 51.8 °F 30.1 in West 3.8 mph 3.8 mph 83 % 0 in
22:45 57.2 °F 51.8 °F 30.1 in Calm   3.8 mph 83 % 0 in
22:50 57.2 °F 51.8 °F 30.1 in Calm   3.4 mph 83 % 0 in
22:55 57.2 °F 51.8 °F 30.1 in WSW 3.6 mph 3.6 mph 83 % 0 in
23:00 57.2 °F 53.6 °F 30.1 in Calm   4 mph 84 % 0 in
23:05 57 °F 53.6 °F 30.1 in Calm   4 mph 84 % 0 in
23:10 57 °F 53.6 °F 30.1 in Calm     85 % 0 in
23:15 57 °F 53.6 °F 30.1 in Calm     85 % 0 in
23:20 57 °F 53.6 °F 30.1 in Calm     85 % 0 in
23:25 56.8 °F 53.6 °F 30.1 in Calm     86 % 0 in
23:30 56.8 °F 53.6 °F 30.1 in Calm     86 % 0 in
23:35 56.8 °F 53.6 °F 30.1 in Calm     86 % 0 in
23:40 56.7 °F 53.6 °F 30.1 in Calm     86 % 0 in
23:46 56.7 °F 53.6 °F 30 in Calm     86 % 0 in
23:51 56.7 °F 53.6 °F 30 in Calm     87 % 0 in
23:56 56.7 °F 53.6 °F 30 in Calm     87 % 0 in
Le Gheer Warneton
Courtoisie de Weather Underground - 2.25 mb

Mise a jour : 16-12-17 12:12:11
Généré par Cumulus 1.9.4 (1099)